Flag for Switzerland Weather past 2 weeks in Sarnen, Obwalden, Switzerland

Now
36 °F

Chilly.


Feels Like: 36 °F
Forecast: 21 / 36 °F
Wind: No wind

Location: Giswil

Current Time: Feb 27, 2015 at 11:18:17 PM

Latest Report: Feb 27, 2015 at 9:00 PM


Visibility: N/A

Pressure: 30.19 "Hg

Humidity: 98%

Dew point: 36 °F

Location of SarnenLocation

Historic Weather in Sarnen — Graph

°F

Sarnen temperature yesterday

Maximum temperature yesterday: 46 °F (at 4:00 PM)
Minimum temperature yesterday: 22 °F (at 8:00 AM)
Average temperature yesterday: 34 °F

Past Weeks' High & Low Weather Summary

 TemperatureHumidityPressure
High49 °F (Feb 20, 4:00 PM)100% (Feb 12, 9:00 PM)30.72 "Hg (Feb 12, 9:00 PM)
Low20 °F (Feb 20, 6:00 AM)31% (Feb 26, 4:00 PM)29.59 "Hg (Feb 21, 3:00 PM)
Average32 °F93%30.10 "Hg
* Reported Feb 12 9:00 PM — Feb 27 9:00 PM, Sarnen, Weather by CustomWeather, © 2015

Note: Actual official high and low records may vary slightly from our data, if they occured in-between our weather recording intervals... More about our weather records

Advertising

Sarnen weather history for previous 24 hours

 ConditionsComfort  
Time TempWeatherWind HumidityBarometerVisibility
9:00 PM
Fri, Feb 27
36 °FChilly.No wind98%30.19 "HgN/A
8:00 PM36 °FChilly.1 mph97%30.17 "HgN/A
7:00 PM37 °FChilly.1 mph98%30.15 "HgN/A
6:00 PM38 °FChilly.No wind95%30.11 "HgN/A
5:00 PM38 °FChilly.1 mph93%30.08 "HgN/A
4:00 PM38 °FChilly.1 mph91%30.04 "HgN/A
3:00 PM38 °FChilly.1 mph90%30.01 "HgN/A
2:00 PM37 °FChilly.1 mph91%29.98 "HgN/A
1:00 PM36 °FChilly.1 mph92%29.97 "HgN/A
12:00 PM35 °FChilly.1 mph96%29.96 "HgN/A
11:00 AM34 °FChilly.No wind97%29.93 "HgN/A
10:00 AM33 °FChilly.1 mph99%29.92 "HgN/A
9:00 AM33 °FChilly.No wind95%29.91 "HgN/A
8:00 AM35 °FChilly.1 mph85%29.89 "HgN/A
7:00 AM36 °FChilly.3 mph82%29.87 "HgN/A
6:00 AM34 °FChilly.1 mph84%29.88 "HgN/A
5:00 AM33 °FChilly.1 mph84%29.89 "HgN/A
3:00 AM33 °FChilly.2 mph83%29.94 "HgN/A
2:00 AM32 °FChilly.1 mph82%29.96 "HgN/A
1:00 AM33 °FChilly.3 mph80%29.99 "HgN/A
12:00 AM31 °FChilly.1 mph85%30.02 "HgN/A
11:00 PM
Thu, Feb 26
31 °FChilly.1 mph81%30.02 "HgN/A
Weather by CustomWeather, © 2015

See weather overviewHow to use our weather pages